EW7246 Weather Reports


time (UTC)temp
C
wind
direction
speed
KPH
gust
KPH
rain 1hr
cm
rain 24hr
cm
rain mn
cm
humidity
%
barometer
mb
20260906204558 30 174 0.0 0.0 0.00 0.00 0.00 58 1006.1
20260906203047 30 147 0.0 0.0 0.00 0.00 0.00 59 1006.2
20260906201548 30 157 0.0 0.0 0.00 0.00 0.00 58 1006.4
20260906200042 30 154 0.0 0.0 0.00 0.00 0.00 59 1006.4
20260906194546 29 205 0.0 0.0 0.00 0.00 0.00 59 1006.7
20260906193036 29 168 0.0 0.0 0.00 0.00 0.00 60 1006.9
20260906191534 28 161 0.0 0.0 0.00 0.00 0.00 62 1007.1
20260906190030 28 158 0.0 0.0 0.00 0.00 0.00 65 1007.3
20260906184528 27 195 0.0 0.0 0.00 0.00 0.00 66 1007.5
20260906183033 27 192 0.0 0.0 0.00 0.00 0.00 68 1007.6
20260906181534 26 176 0.0 0.0 0.00 0.00 0.00 71 1008.0
20260906180026 26 149 0.0 0.0 0.00 0.00 0.00 72 1008.1
20260906174514 25 205 0.0 0.0 0.00 0.00 0.00 74 1008.2
20260906173011 25 205 0.0 0.0 0.00 0.00 0.00 75 1008.4
20260906171508 24 185 0.0 0.0 0.00 0.00 0.00 77 1008.6
20260906170006 24 156 0.0 0.0 0.00 0.00 0.00 77 1008.9
20260906164507 24 237 0.0 0.0 0.00 0.00 0.00 77 1009.0
20260906163002 23 186 0.0 0.0 0.00 0.00 0.00 80 1009.3
20260906161621 23 178 0.0 0.0 0.00 0.00 0.00 80 1009.2
20260906160057 23 139 0.0 0.0 0.00 0.00 0.00 81 1009.0
20260906154559 22 178 0.0 0.0 0.00 0.00 0.00 82 1009.0
20260906153110 22 199 0.0 0.0 0.00 0.00 0.00 83 1009.0
20260906151554 22 190 0.0 0.0 0.00 0.00 0.00 85 1009.1
20260906150051 21 192 0.0 0.0 0.00 0.00 0.00 87 1009.1
20260906144550 21 205 0.0 0.0 0.00 0.00 0.00 88 1009.3
20260906143045 20 210 0.0 0.0 0.00 0.00 0.00 90 1009.2
20260906141555 20 285 0.0 0.0 0.00 0.00 0.00 91 1009.3
20260906140038 18 317 0.0 0.0 0.00 0.00 0.00 91 1008.9
20260906134532 18 317 0.0 0.0 0.00 0.00 0.00 90 1008.8
20260906133034 17 317 0.0 0.0 0.00 0.00 0.00 90 1008.7
20260906131524 17 317 0.0 0.0 0.00 0.00 0.00 89 1008.3
20260906130024 17 127 0.0 0.0 0.00 0.00 0.00 89 1008.1
20260906124522 17 127 0.0 0.0 0.00 0.00 0.00 89 1007.6
20260906123023 17 127 0.0 0.0 0.00 0.00 0.00 89 1007.5
20260906121531 17 129 0.0 0.0 0.00 0.00 0.00 89 1007.8
20260906120017 17 107 0.0 0.0 0.00 0.00 0.00 89 1007.7
20260906114528 17 109 0.0 0.0 0.00 0.00 0.00 89 1007.9
20260906113016 17 76 0.0 0.0 0.00 0.00 0.00 88 1007.1
20260906111516 17 159 0.0 0.0 0.00 0.00 0.00 87 1007.7
20260906110015 17 147 0.0 0.0 0.00 0.00 0.00 86 1007.8
20260906104515 18 82 0.0 0.0 0.00 0.00 0.00 87 1007.4
20260906103016 18 83 0.0 0.0 0.00 0.00 0.00 86 1007.7
20260906101514 18 72 0.0 0.0 0.00 0.00 0.00 86 1007.2
20260906100025 18 76 0.0 0.0 0.00 0.00 0.00 85 1007.4
20260906094514 18 76 0.0 0.0 0.00 0.00 0.00 85 1008.2
20260906093015 18 297 0.0 0.0 0.00 0.00 0.00 85 1008.0
20260906091512 18 114 0.0 0.0 0.00 0.00 0.00 85 1006.9
20260906090012 18 94 0.0 0.0 0.00 0.00 0.00 85 1006.7
20260906084512 18 94 0.0 0.0 0.00 0.00 0.00 85 1007.2
20260906083010 18 60 0.0 0.0 0.00 0.00 0.00 87 1006.8
20260906081508 17 59 0.0 0.0 0.00 0.00 0.00 89 1008.5
20260906080007 17 38 0.0 0.0 0.00 0.00 0.00 90 1010.1
20260906074506 17 260 0.0 0.0 0.00 0.00 0.00 89 1010.8
20260906073007 17 14 0.0 0.0 0.00 0.00 0.00 89 1010.4
20260906071504 17 332 0.0 0.0 0.00 0.00 0.00 90 1010.7
20260906070003 17 338 0.0 0.0 0.00 0.00 0.00 89 1011.1
20260906064500 17 338 0.0 11.3 0.00 0.00 0.00 88 1010.3
20260906063058 18 304 20.9 53.1 0.00 0.00 0.00 87 1011.5
20260906061555 19 272 45.1 83.7 0.00 0.00 0.00 81 1011.4
20260906060109 23 262 0.0 6.4 0.00 0.00 0.00 74 1007.2
20260906054601 23 32 0.0 0.0 0.00 0.00 0.00 70 1006.4
20260906053050 24 360 0.0 4.8 0.00 0.00 0.00 69 1006.1
20260906051549 25 360 0.0 0.0 0.00 0.00 0.00 69 1006.8
20260906050049 26 360 0.0 1.6 0.00 0.00 0.00 65 1007.1
20260906044548 27 360 0.0 0.0 0.00 0.00 0.00 60 1006.9
20260906043050 27 360 0.0 0.0 0.00 0.00 0.00 58 1006.1
20260906041547 28 340 0.0 0.0 0.00 0.00 0.00 54 1007.1
20260906040046 29 163 0.0 0.0 0.00 0.00 0.00 46 1006.1
20260906034558 29 139 0.0 14.5 0.00 0.00 0.00 42 1005.1
20260906033046 28 171 0.0 12.9 0.00 0.00 0.00 43 1004.8
20260906031543 28 153 0.0 6.4 0.00 0.00 0.00 47 1004.8
20260906030044 28 165 0.0 29.0 0.00 0.00 0.00 52 1005.4
20260906024543 28 360 0.0 3.2 0.00 0.00 0.00 55 1005.8
20260906023044 27 360 0.0 0.0 0.00 0.00 0.00 55 1005.3
20260906021544 27 360 0.0 4.8 0.00 0.00 0.00 56 1005.1
20260906020041 27 360 0.0 0.0 0.00 0.00 0.00 56 1005.2
20260906014548 27 360 0.0 0.0 0.00 0.00 0.00 56 1005.5
20260906013041 27 360 0.0 0.0 0.00 0.00 0.00 55 1005.1
20260906011540 28 360 0.0 0.0 0.00 0.00 0.00 54 1004.9
20260906010053 28 105 0.0 0.0 0.00 0.00 0.00 51 1005.2
20260906004549 29 106 0.0 0.0 0.00 0.00 0.00 50 1005.5
20260906003039 30 101 0.0 0.0 0.00 0.00 0.00 47 1005.8
20260906001554 31 111 0.0 0.0 0.00 0.00 0.00 43 1005.4
20260906000038 31 115 0.0 0.0 0.00 0.00 0.00 40 1005.0
20260905234538 32 100 0.0 0.0 0.00 0.00 0.00 39 1004.7
20260905233039 32 123 0.0 1.6 0.00 0.00 0.00 39 1004.6
20260905231536 33 132 0.0 0.0 0.00 0.00 0.00 38 1004.4
20260905230038 33 107 0.0 0.0 0.00 0.00 0.00 39 1004.3
20260905224535 33 121 0.0 0.0 0.00 0.00 0.00 39 1004.2
20260905223047 33 83 0.0 3.2 0.00 0.00 0.00 41 1004.1
20260905221536 33 102 0.0 4.8 0.00 0.00 0.00 40 1003.9
20260905220032 33 105 0.0 4.8 0.00 0.00 0.00 40 1004.1
20260905214529 33 170 0.0 0.0 0.00 0.00 0.00 41 1004.5
20260905213027 33 149 0.0 1.6 0.00 0.00 0.00 41 1004.7
20260905211524 33 137 0.0 0.0 0.00 0.00 0.00 43 1005.0
20260905210032 33 101 0.0 1.6 0.00 0.00 0.00 43 1005.1